Regional Weather Roundup
Issued by NWS

Home | Current Version | Previous Version | Graphics & Text | Print | Product List | Glossary Off
Versions: 1 2 3 4 5 6 7 8 9 10 11 12 13 14 15 16 17 18 19 20 21 22 23 24 25 26 27 28 29 30 31 32 33 34 35 36 37 38 39 40 41 42 43 44 45 46 47 48 49 50

000
ASUS43 KMKX 120500
RWRWI

WISCONSIN REGIONAL WEATHER ROUNDUP
NATIONAL WEATHER SERVICE MILWAUKEE/SULLIVAN WI
1200 AM CDT SAT JUL 12 2014

NOTE: "FAIR" INDICATES FEW OR NO CLOUDS BELOW 12,000 FEET WITH NO
SIGNIFICANT WEATHER AND/OR OBSTRUCTIONS TO VISIBILITY.

WIZ001-002-006>008-014>016-023>028-120600-
NORTHWEST WISCONSIN

CITY           SKY/WX    TMP DP  RH WIND       PRES   REMARKS
SUPERIOR ARPT  CLEAR     65  65  98 CALM      29.97S FOG
ASHLAND        PTCLDY    68  65  90 S9        29.98F
HAYWARD        PTCLDY    68  66  93 SW6       30.02F
SIREN          LGT RAIN  69  67  94 S6        30.01S
RICE LAKE      CLOUDY    69  66  89 CALM      30.04S
LADYSMITH      CLOUDY    70  65  84 CALM      30.06R
EAU CLAIRE     NOT AVBL
MENOMONIE      MOCLDY    71  67  88 CALM      30.03S
NEW RICHMOND   CLEAR     70  68  93 CALM      30.03R
OSCEOLA        CLEAR     72  70  95 CALM      30.03S
$$

WIZ003>005-009-010-017-018-120600-
NORTH CENTRAL WISCONSIN

CITY           SKY/WX    TMP DP  RH WIND       PRES   REMARKS
WOODRUFF       CLOUDY    67  63  85 SW6       30.06S
RHINELANDER    MOCLDY    66  59  78 SW9       30.07S
EAGLE RIVER    CLOUDY    67  58  74 SW8       30.06R
LAND O LAKES   CLOUDY    68  61  78 SW6       30.06S
PHILLIPS       CLOUDY    67  64  88 S3        30.05S
TOMAHAWK       CLOUDY    66  59  78 CALM      30.07S
MEDFORD        PTCLDY    66  63  88 S7        30.06F
MERRILL        MOCLDY    67  61  79 SW3       30.07S
$$

WIZ029-030-035-036-043>047-120600-
CENTRAL WISCONSIN

CITY           SKY/WX    TMP DP  RH WIND       PRES   REMARKS
WAUSAU         CLOUDY    70  60  70 S7        30.05F
MOSINEE        CLOUDY    68  61  77 S7        30.09S
MARSHFIELD     PTCLDY    68  62  81 S7        30.06S
STEVENS POINT  MOCLDY    67  58  71 S8        30.08R
WAUPACA        CLOUDY    69  60  72 CALM      30.08F
WAUTOMA        NOT AVBL
WISC RAPIDS    CLEAR     69  60  73 S7        30.08S
CAMP DOUGLAS   NOT AVBL
$$

WIZ011>013-019>022-031-037>040-048>050-120600-
NORTHEAST WISCONSIN

CITY           SKY/WX    TMP DP  RH WIND       PRES   REMARKS
ANTIGO         PTCLDY    63  57  82 SW5       30.08S
STURGEON BAY   PTCLDY    66  54  63 S8        30.08R
GREEN BAY      MOCLDY    68  56  65 S7        30.06F
MANITOWOC      NOT AVBL
APPLETON       CLOUDY    68  55  64 S9        30.09F
CLINTONVILLE   MOCLDY    70  57  64 SW9       30.06S
OSHKOSH        MOCLDY    64  58  80 S6        30.08S
$$

WIZ032>034-041-042-053>061-120600-
SOUTHWEST WISCONSIN

CITY           SKY/WX    TMP DP  RH WIND       PRES   REMARKS
LA CROSSE      CLEAR     73  65  75 SE8       30.03F
SPARTA         CLOUDY    71  62  74 S3        30.06F
VIROQUA        CLOUDY    69  64  82 SE6       30.07F
BOSCOBEL       CLOUDY    72  64  76 CALM      30.06F
PRAIRIE DU CHI CLOUDY    71  64  79 E6        30.05S
PLATTEVILLE    MOCLDY    70  65  84 SE8       30.09S
$$

WIZ056-057-062-063-064-067-068-120600-
SOUTH CENTRAL WISCONSIN

CITY           SKY/WX    TMP DP  RH WIND       PRES   REMARKS
BARABOO/DELLS  MOCLDY    69  60  73 S7        30.08F
LONE ROCK      NOT AVBL
WATERTOWN      MOCLDY    66  59  77 CALM      30.10S
MADISON        MOCLDY    73  61  65 S8        30.09F
MIDDLETON      CLOUDY    73  59  61 S5        30.10S
MONROE         MOCLDY    68  63  83 S8        30.10S
JANESVILLE     CLOUDY    72  59  64 S6        30.10S
$$

WIZ051-052-058>065-066-070>072-120600-
SOUTHEAST WISCONSIN

CITY           SKY/WX    TMP DP  RH WIND       PRES   REMARKS
MILWAUKEE      MOCLDY    68  57  68 S6        30.11F
WAUKESHA       PTCLDY    64  55  72 S5        30.13S
MILWAUKEE/TIMM PTCLDY    68  54  60 CALM      30.12S
RACINE         MOCLDY    68  60  75 S7        30.13F
BURLINGTON     PTCLDY    64  61  88 CALM      30.12S
KENOSHA        MOCLDY    68  61  78 S5        30.12F
FOND DU LAC    PTCLDY    63  57  81 S6        30.09F
SHEBOYGAN      CLOUDY    64  55  72 S5        30.10F
WEST BEND      CLOUDY    63  52  67 CALM      30.11S
JUNEAU         PTCLDY    65  44  45 SE8       30.11S
$$

LSZ147-162-120600-
LAKE SUPERIOR

STATION/POSITION TIME  TEMP    WIND        PRES    WAVE
                       AIR SEA DIR/SP/G            HT/PER
                 (UTC) (F)     (DEG/KT/KT) (MB)    (FT/S)
W MID LAKE BUOY  0350   50 38  220/ 12/ 14 1014.0R   1
PORT WING        0440   68     200/  5/  7 1014.9R
SAXON HARBOR     0400          190/  8/ 15 1014.9
$$

LMZ867-665-643>646-120600-
LAKE MICHIGAN

STATION/POSITION TIME  TEMP    WIND        PRES    WAVE
                       AIR SEA DIR/SP/G            HT/PER
                 (UTC) (F)     (DEG/KT/KT) (MB)    (FT/S)
N MID LAKE BUOY  0350   58 53  200/ 17/ 19 1017.4F   3/ 5
NORTHPORT PIER   0400   63     150/  5/  8 1017.9S
KEWAUNEE LAKESHO 0400   54     190/  7/  8 1019.2F
SHEBOYGAN LAKESH 0400   68     200/ 10/ 11 1019.4S
PORT WASHINGTON  0400   62     190/  7/ 10 1020.0F
MILWAUKEE LAKESH 0400   59     190/  4/  5   N/A
S MID LAKE BUOY  0350   64 61  140/  6/  8 1020.4R   0
KENOSHA   LAKESH 0400   65     190/  6/  8   N/A
$$

TC  - TEMPERATURE IN CELSIUS
VSB - VISIBILITY IN STATUTE MILES
WCI - WIND CHILL INDEX
HX  - HEAT INDEX



USA.gov is the U.S. government's official web portal to all federal, state and local government web resources and services.